Históricos dos jogos de 2017-2018 (Tipos de Passe)

Históricos dos jogos de 2017-2018 (Tipos de Passe) Table
Tipos de Passe Escanteios Altura Partes do Corpo Resultados
Data Dia Camp. Rodada Local Resultado Equipe Oponente Início Pos. Min. Att Em jogo Parado FK TB Pressão Sw Crz CK In Fora Reto Chão Baixo Alto Canhoto Destro Cabeça TI Outro Cmp Desativado Fora Crts Bloqueios Relatório da Partida
2017-08-13domSupercoppa ItalianaSupercoppa ItalianaNeutroV 3–2LazioJuventusSCM9011Relatório da Partida
2017-08-20domSerie ARodada da semana 1Em casaE 0–0LazioSPALSCM9077689202162700053519175100590102Relatório da Partida
2017-08-27domSerie ARodada da semana 2VisitanteV 2–1LazioChievoSAM,CM9051447107416000281112146301371002Relatório da Partida
2017-09-10domSerie ARodada da semana 3Em casaV 4–1LazioMilanSAM906052840950300043512646314452101Relatório da Partida
2017-09-14quiEuropa LgEstágio de gruposVisitanteV 3–2it Lazionl VitesseSFW903Relatório da Partida
2017-09-17domSerie ARodada da semana 4VisitanteV 3–2LazioGenoaSAM907268430730100054810466101560032Relatório da Partida
2017-09-20quaSerie ARodada da semana 5Em casaD 1–4LazioNapoliSAM9044368401422320026414140011310221Relatório da Partida
2017-09-24domSerie ARodada da semana 6VisitanteV 3–0LazioHellas VeronaSAM70585261094240004198453010491011Relatório da Partida
2017-09-28quiEuropa LgEstágio de gruposEm casaV 2–0it Laziobe Zulte WaregemSFW531Relatório da Partida
2017-10-01domSerie ARodada da semana 7Em casaV 6–1LazioSassuoloSFW7147425101023400035210541000321314Relatório da Partida
2017-10-14sábSerie ARodada da semana 8VisitanteV 2–1LazioJuventusSAM714237521171210003354240000311102Relatório da Partida
2017-10-19quiEuropa LgEstágio de gruposVisitanteV 3–1it Laziofr NiceN312Relatório da Partida
2017-10-22domSerie ARodada da semana 9Em casaV 3–0LazioCagliariSAM,CM9061538406443120371212554011520001Relatório da Partida
2017-10-25quaSerie ARodada da semana 10VisitanteV 2–1LazioBolognaSAM7261547149514130361015356020433201Relatório da Partida
2017-10-29domSerie ARodada da semana 11VisitanteV 5–1LazioBeneventoSAM90807460121406510591011869101642122Relatório da Partida
2017-11-02quiEuropa LgEstágio de gruposEm casaV 1–0it Laziofr NiceSCM908Relatório da Partida
2017-11-11sábAmistosos (M)Amistosos (M)Em casaV 5–0es Espanhacr Costa RicaN17Relatório da Partida
2017-11-18sábSerie ARodada da semana 13VisitanteD 1–2LazioRomaSFW903831711731600023510037100250121Relatório da Partida
2017-11-23quiEuropa LgEstágio de gruposEm casaE 1–1it Lazionl VitesseSCM675Relatório da Partida
2017-11-26domSerie ARodada da semana 14Em casaE 1–1LazioFiorentinaSFW8757507011022600032619450111341122Relatório da Partida
2017-12-03domSerie ARodada da semana 15VisitanteV 2–1LazioSampdoriaSFW,AM9043367101032600030211337100300113Relatório da Partida
2017-12-11segSerie ARodada da semana 16Em casaD 1–3LazioTorinoSAM,CM,FW885943163255411253291218849020321116Relatório da Partida
2017-12-17domSerie ARodada da semana 17VisitanteE 3–3LazioAtalantaSAM,CM904940910720660030613742000370015Relatório da Partida
2017-12-23sábSerie ARodada da semana 18Em casaV 4–0LazioCrotoneSAM82443014308301073026414142010310010Relatório da Partida
2017-12-26terCoppa ItaliaQuartas de finalEm casaV 1–0LazioFiorentinaN40Relatório da Partida
2017-12-30sábSerie ARodada da semana 19VisitanteE 0–0LazioInterSAM64393271051252102478137001260112Relatório da Partida
2018-01-06sábSerie ARodada da semana 20VisitanteV 5–2LazioSPALSAM,CM9048417211230413029811045012372012Relatório da Partida
2018-01-21domSerie ARodada da semana 21Em casaV 5–1LazioChievoSAM9072693002830201052128268110600230Relatório da Partida
2018-01-24quaSerie ARodada da semana 12Em casaV 3–0LazioUdineseNFW19111100041000006232900061101Relatório da Partida
2018-01-28domSerie ARodada da semana 22VisitanteD 1–2LazioMilanSAM904539630702201129412339102350102Relatório da Partida
2018-01-31quaCoppa ItaliaSemifinaisVisitanteE 0–0LazioMilanN283Relatório da Partida
2018-02-05segSerie ARodada da semana 23Em casaD 1–2LazioGenoaSFW90786711114718340511215271220561052Relatório da Partida
2018-02-10sábSerie ARodada da semana 24VisitanteD 1–4LazioNapoliSFW60252320081021001375319100160110Relatório da Partida
2018-02-19segSerie ARodada da semana 25Em casaV 2–0LazioHellas VeronaSFW90705713209521000050218762010530041Relatório da Partida
2018-02-22quiEuropa LgRodada inicialNeutroV 5–1it Lazioro FCSBSCM665Relatório da Partida
2018-02-28quaCoppa ItaliaSemifinaisEm casaE 0 (4)–0 (5)LazioMilanS668Relatório da Partida
2018-03-03sábSerie ARodada da semana 27Em casaD 0–1LazioJuventusSFW694842621122400035211444000370100Relatório da Partida
2018-03-11domSerie ARodada da semana 28VisitanteE 2–2LazioCagliariSFW90594910401312400036320454010420031Relatório da Partida
2018-03-15quiEuropa LgOitavas de finalVisitanteV 2–0it Lazioua Dynamo KyivSCM909Relatório da Partida
2018-03-18domSerie ARodada da semana 29Em casaE 1–1LazioBolognaSCM9070628211514500052711068200471300Relatório da Partida
2018-03-31sábSerie ARodada da semana 30Em casaV 6–2LazioBeneventoSLM,CM90806911117438211471320473120633203Relatório da Partida
2018-04-05quiEuropa LgQuartas de finalEm casaV 4–2it Lazioat RB SalzburgSFW643Relatório da Partida
2018-04-08domSerie ARodada da semana 31VisitanteV 2–1LazioUdineseSCM59635850063020005085553320560110Relatório da Partida
2018-04-12quiEuropa LgQuartas de finalVisitanteD 1–4it Lazioat RB SalzburgSFW905Relatório da Partida
2018-04-15domSerie ARodada da semana 32Em casaE 0–0LazioRomaNFW,RW3219154103003000141421610080023Relatório da Partida
2018-04-18quaSerie ARodada da semana 33VisitanteV 4–3LazioFiorentinaSCM,FW,WB90806515501004700057320372131590114Relatório da Partida
2018-04-29domSerie ARodada da semana 35VisitanteV 1–0LazioTorinoSFW77554510401723600039214451000370113Relatório da Partida
2018-05-06domSerie ARodada da semana 36Em casaE 1–1LazioAtalantaSAM3619145206123101955019000130002Relatório da Partida
29-11-842/483.513182415682566215332931161623425612082144021091643252316133921304062

Sobre o FBref.com

FBref.com foi lançado (em 13 de junho de 2018) com cobertura das ligas nacionais da Inglaterra, França, Itália, Espanha e Estados Unidos. Desde então temos expandido nossa cobertura para incluir ligas nacionais de mais de 40 países, bem como as copas nacionais, super copas e ligas da juventude dos principais países europeus. Também adicionamos cobertura para as principais copas internacionais como a Liga dos Campeões da UEFA e a Copa Libertadores.

O FBref inclui o que acreditamos ser uma das fontes mais completas para dados do futebol feminino na internet. Isso inclui todo o histórico da Copa do Mundo Feminina da FIFA bem como as temporadas nacionais recentes de nove países.

Em colaboração com StatsBomb, incluímos avançados dados analíticos como xG e xA para competições selecionadas. Para saber mais sobre o modelo de gols previstos e quais competições são cobertas, visite nossa explicação xG.

A equipe de referência de esportes, hoje, é totalmente formada por falantes de inglês e espanhol. Temos a intenção de atender nossos clientes não importando qual a sua língua materna. Assim, faremos o melhor a nosso alcance para traduzir nosso website para o Português. Caso encontre um erro ou palavra, frase ou abreviação mal colocados, pedimos que nos informe e tentaremos corrigir o problema com a brevidade possível.

Note que os registros de jogadores possivelmente não contêm suas carreiras completas. Os jogadores podem vir ou ir para ligas que não cobrimos atualmente. Esse problema diminuirá com o passar do tempo à medida que adicionamos novas ligas e temporadas. Nunca teremos menos dados do que temos hoje. FBref atualmente não contém publicidade. O único pagamento que pedimos é que você avise a gente caso encontre um problema, para que possamos continuar melhorando.

Você pode se cadastrar para receber um e-mail quando novos países e recursos forem lançados.

Para mais informações, consulte nossa Publicação de Lançamento de Blog, a página de ligas/competições gerais com detalhes sobre ligas e temporadas que incluímos ou nossa Página Sobre Nós. Entre em contato conosco caso encontre algum problema ou tenha uma sugestão.

O FBref é uma das sete páginas do Sports-Reference.com.